Weather History for Wrangell, AK

Change the Weather History Date:

Saturday, October 13, 2012

  Actual Average Record
Temperature  
Mean Temperature 48 °F -  
Max Temperature 51 °F 48 °F 58 °F (1964)
Min Temperature 46 °F 39 °F 31 °F (1956)
Degree Days  
Heating Degree Days 16    
Moisture  
Dew Point 44 °F    
Average Humidity 82    
Maximum Humidity 87    
Minimum Humidity 71    
Precipitation  
Precipitation 0.00 in - - ()
Sea Level Pressure  
Sea Level Pressure 29.62 in    
Wind  
Wind Speed 8 mph (SSE)    
Max Wind Speed 18 mph    
Max Gust Speed 25 mph    
Visibility 10 miles    
Events      
Averages and records for this station are not official NWS values.
T = Trace of Precipitation, MM = Missing Value Source: NWS Daily Summary

Daily Weather History Graph

Daily Weather History Graph

Search for Another Location

Airport:

Trip Planner

Search our weather history database for the weather conditions in past years. The results will help you decide how hot, cold, wet, or windy it might be!

Date:

Astronomy

Oct. 13, 2012 Rise Set
Actual Time 7:18 AM AKDT 5:51 PM AKDT
Civil Twilight 6:40 AM AKDT 6:29 PM AKDT
Nautical Twilight 5:57 AM AKDT 7:12 PM AKDT
Astronomical Twilight 5:13 AM AKDT 7:56 PM AKDT
Moon 5:01 AM AKDT (10/13) 4:48 PM AKDT (10/13)
Length of Visible Light 11h 48m
Length of Day
10h 32m
Waning Crescent, 4% of the Moon is Illuminated
Oct 13
Waning Crescent
Oct 15
New
Oct 21
First Quarter
Oct 29
Full
Nov 6
Last Quarter

Hourly Weather History & Observations

Time (AKDT) Temp. Windchill Dew Point Humidity Pressure Visibility Wind Dir Wind Speed Gust Speed Precip Events Conditions
12:16 AM 50.0 °F - 46.4 °F 87% 29.45 in 7.0 mi West 5.8 mph - N/A   Overcast
12:36 AM 51.8 °F - 46.4 °F 82% 29.46 in 10.0 mi SW 8.1 mph - N/A   Mostly Cloudy
12:56 AM 50.0 °F - 46.4 °F 87% 29.47 in 10.0 mi Calm Calm - N/A   Mostly Cloudy
1:16 AM 50.0 °F - 46.4 °F 87% 29.48 in 10.0 mi NNE 4.6 mph - N/A   Mostly Cloudy
1:36 AM 51.8 °F - 44.6 °F 76% 29.49 in 10.0 mi SSW 3.5 mph - N/A   Overcast
2:16 AM 51.8 °F - 44.6 °F 76% 29.51 in 10.0 mi WSW 6.9 mph - N/A   Overcast
2:36 AM 51.8 °F - 44.6 °F 76% 29.52 in 10.0 mi South 13.8 mph 23.0 mph N/A   Overcast
2:56 AM 50.0 °F - 42.8 °F 76% 29.54 in 10.0 mi SSW 12.7 mph 20.7 mph N/A   Overcast
3:16 AM 50.0 °F - 42.8 °F 76% 29.56 in 10.0 mi SSW 10.4 mph 18.4 mph N/A   Mostly Cloudy
3:36 AM 50.0 °F - 42.8 °F 76% 29.57 in 10.0 mi SSW 9.2 mph - N/A   Overcast
3:56 AM 50.0 °F - 42.8 °F 76% 29.59 in 10.0 mi SSW 6.9 mph - N/A   Overcast
4:16 AM 50.0 °F - 42.8 °F 76% 29.60 in 10.0 mi SSE 8.1 mph 19.6 mph N/A   Scattered Clouds
4:56 AM 48.2 °F - 44.6 °F 87% 29.60 in 10.0 mi SE 10.4 mph - N/A   Mostly Cloudy
5:16 AM 48.2 °F - 44.6 °F 87% 29.60 in 10.0 mi ESE 4.6 mph - N/A   Overcast
5:36 AM 48.2 °F - 42.8 °F 82% 29.61 in 10.0 mi South 6.9 mph - N/A   Overcast
5:56 AM 48.2 °F - 42.8 °F 82% 29.62 in 7.0 mi SSE 5.8 mph - N/A   Overcast
6:16 AM 48.2 °F - 42.8 °F 82% 29.62 in 7.0 mi South 3.5 mph - N/A   Overcast
6:36 AM 48.2 °F - 42.8 °F 82% 29.63 in 7.0 mi South 3.5 mph - N/A   Overcast
6:56 AM 48.2 °F - 44.6 °F 87% 29.64 in 7.0 mi SE 6.9 mph - N/A   Overcast
7:16 AM 48.2 °F - 42.8 °F 82% 29.64 in 7.0 mi South 6.9 mph - N/A   Overcast
7:36 AM 48.2 °F - 42.8 °F 82% 29.66 in 7.0 mi SSE 6.9 mph - N/A   Overcast
7:56 AM 48.2 °F - 44.6 °F 87% 29.67 in 7.0 mi SW 3.5 mph - N/A   Overcast
8:16 AM 48.2 °F - 44.6 °F 87% 29.67 in 10.0 mi SE 5.8 mph - N/A   Overcast
8:36 AM 48.2 °F - 44.6 °F 87% 29.67 in 10.0 mi SSE 5.8 mph - N/A   Overcast
8:56 AM 48.2 °F - 44.6 °F 87% 29.68 in 7.0 mi Calm Calm - N/A   Overcast
9:16 AM 48.2 °F - 44.6 °F 87% 29.69 in 7.0 mi Calm Calm - N/A   Overcast
9:36 AM 48.2 °F - 44.6 °F 87% 29.69 in 7.0 mi SSE 9.2 mph - N/A   Overcast
9:56 AM 48.2 °F - 44.6 °F 87% 29.70 in 10.0 mi SW 4.6 mph - N/A   Overcast
10:16 AM 48.2 °F - 44.6 °F 87% 29.71 in 10.0 mi Calm Calm - N/A   Overcast
10:36 AM 48.2 °F - 44.6 °F 87% 29.71 in 10.0 mi ESE 9.2 mph - N/A   Overcast
10:56 AM 48.2 °F - 44.6 °F 87% 29.71 in 10.0 mi SSE 8.1 mph 17.3 mph N/A   Overcast
11:16 AM 50.0 °F - 44.6 °F 82% 29.71 in 10.0 mi SSE 9.2 mph - N/A   Overcast
11:36 AM 50.0 °F - 44.6 °F 82% 29.72 in 10.0 mi South 8.1 mph - N/A   Overcast
11:56 AM 50.0 °F - 44.6 °F 82% 29.71 in 10.0 mi ESE 11.5 mph 17.3 mph N/A   Overcast
12:36 PM 51.8 °F - 44.6 °F 76% 29.71 in 10.0 mi SE 13.8 mph 23.0 mph N/A   Overcast
1:16 PM 51.8 °F - 44.6 °F 76% 29.72 in 10.0 mi South 6.9 mph 16.1 mph N/A   Overcast
1:36 PM 51.8 °F - 46.4 °F 82% 29.72 in 10.0 mi South 10.4 mph 16.1 mph N/A   Overcast
1:56 PM 51.8 °F - 46.4 °F 82% 29.72 in 10.0 mi SSE 9.2 mph - N/A   Mostly Cloudy
2:16 PM 51.8 °F - 44.6 °F 76% 29.71 in 10.0 mi SE 9.2 mph 18.4 mph N/A   Mostly Cloudy
2:36 PM 51.8 °F - 44.6 °F 76% 29.71 in 10.0 mi SSE 10.4 mph 16.1 mph N/A   Mostly Cloudy
2:56 PM 51.8 °F - 44.6 °F 76% 29.70 in 10.0 mi SE 11.5 mph 23.0 mph N/A   Overcast
3:16 PM 51.8 °F - 44.6 °F 76% 29.70 in 10.0 mi SE 16.1 mph 24.2 mph N/A   Overcast
3:36 PM 51.8 °F - 44.6 °F 76% 29.70 in 10.0 mi SE 15.0 mph 21.9 mph N/A   Overcast
3:56 PM 51.8 °F - 44.6 °F 76% 29.70 in 10.0 mi SE 17.3 mph 23.0 mph N/A   Overcast
4:16 PM 51.8 °F - 44.6 °F 76% 29.69 in 10.0 mi ESE 17.3 mph 25.3 mph N/A   Mostly Cloudy
4:36 PM 51.8 °F - 42.8 °F 71% 29.70 in 10.0 mi ESE 15.0 mph 24.2 mph N/A   Mostly Cloudy
4:56 PM 51.8 °F - 42.8 °F 71% 29.69 in 10.0 mi ESE 18.4 mph 25.3 mph N/A   Overcast
5:16 PM 51.8 °F - 44.6 °F 76% 29.70 in 10.0 mi SE 13.8 mph 23.0 mph N/A   Overcast
5:36 PM 50.0 °F - 44.6 °F 82% 29.69 in 10.0 mi SE 13.8 mph - N/A   Overcast
5:56 PM 50.0 °F - 44.6 °F 82% 29.68 in 10.0 mi SE 13.8 mph 20.7 mph N/A   Overcast
6:16 PM 50.0 °F - 44.6 °F 82% 29.68 in 10.0 mi ESE 11.5 mph 21.9 mph N/A   Overcast
6:36 PM 50.0 °F - 44.6 °F 82% 29.67 in 10.0 mi ESE 16.1 mph 20.7 mph N/A   Overcast
6:56 PM 48.2 °F - 44.6 °F 87% 29.66 in 10.0 mi ESE 13.8 mph 19.6 mph N/A   Overcast
7:16 PM 50.0 °F - 44.6 °F 82% 29.65 in 10.0 mi ESE 10.4 mph - N/A   Overcast
7:36 PM 50.0 °F - 44.6 °F 82% 29.64 in 10.0 mi ESE 10.4 mph 16.1 mph N/A   Overcast
7:56 PM 50.0 °F - 44.6 °F 82% 29.63 in 10.0 mi ESE 9.2 mph - N/A   Overcast
8:16 PM 50.0 °F - 44.6 °F 82% 29.63 in 10.0 mi ESE 5.8 mph - N/A   Overcast
8:36 PM 50.0 °F - 44.6 °F 82% 29.62 in 10.0 mi East 10.4 mph - N/A   Overcast
8:56 PM 48.2 °F - 44.6 °F 87% 29.60 in 10.0 mi ESE 8.1 mph - N/A   Overcast
9:16 PM 48.2 °F - 42.8 °F 82% 29.58 in 10.0 mi ESE 6.9 mph - N/A   Overcast
9:36 PM 48.2 °F - 44.6 °F 87% 29.57 in 10.0 mi ESE 5.8 mph - N/A   Overcast
9:56 PM 48.2 °F - 44.6 °F 87% 29.55 in 10.0 mi ESE 6.9 mph - N/A   Mostly Cloudy
10:16 PM 48.2 °F - 42.8 °F 82% 29.52 in 10.0 mi SSE 5.8 mph - N/A   Mostly Cloudy
10:36 PM 48.2 °F - 42.8 °F 82% 29.50 in 10.0 mi SSE 5.8 mph - N/A   Mostly Cloudy
10:56 PM 48.2 °F - 42.8 °F 82% 29.49 in 10.0 mi ESE 3.5 mph - N/A   Mostly Cloudy
11:16 PM 48.2 °F - 42.8 °F 82% 29.46 in 10.0 mi SE 5.8 mph - N/A   Clear
11:36 PM 46.4 °F 43.5 °F 42.8 °F 87% 29.43 in 10.0 mi SE 5.8 mph - N/A   Clear
11:56 PM 46.4 °F 43.5 °F 41.0 °F 81% 29.41 in 10.0 mi SE 5.8 mph - N/A   Clear